Regional Weather Roundup
Issued by NWS State College, PA

Home | Current Version | Previous Version | Text Only | Print | Product List | Glossary On
Versions: 1 2 3 4 5 6 7 8 9 10 11 12 13 14 15 16 17 18 19 20 21 22 23 24 25 26 27 28 29 30 31 32 33 34 35 36 37 38 39 40 41 42 43 44 45 46 47 48 49 50
581
ASUS41 KCTP 270603
RWRCTP

REGIONAL WEATHER ROUNDUP
NATIONAL WEATHER SERVICE STATE COLLEGE PA
200 AM EDT TUE SEP 27 2016

Note: "fair" indicates few or no clouds below 12,000 feet with no
significant weather and/or obstructions to visibility.

* = STATION THAT DOES NOT REPORT PRECIPITATION /E.G. RAIN...SNOW...ETC/
    THUNDER OR FOG.

PAZ002>004-007>009-013>016-020>023-029>032-270700-
WESTERN PENNSYLVANIA

CITY           SKY/WX    TMP DP  RH WIND       PRES   REMARKS
ERIE           MOCLDY    59  49  69 SW14      29.92R
MEADVILLE      CLEAR     52  50  93 S3        29.96S
FRANKLIN*        N/A     52  46  82 SW8       29.98S
NEW CASTLE     FAIR      54  53  97 VRB3      29.99S
BEAVER COUNTY  NOT AVBL
BUTLER*        CLEAR     54  50  87 SW3       30.02S
PITTSBURGH INT PTCLDY    56  55  97 SW6       30.00S
PITTSBURGH     CLEAR     55  51  86 S7        30.00S
INDIANA*       PTCLDY    57  55  94 W7        30.03S
LATROBE        CLEAR     55  55 100 S6        30.03S
WASHINGTON CO* CLEAR     48  46  93 CALM      30.03S
$$

PAZ004>006-010>012-017>019-024>028-033>037-041-042-045-046-049>053-270700-
CENTRAL PENNSYLVANIA

CITY           SKY/WX    TMP DP  RH WIND       PRES   REMARKS
BRADFORD       PTCLDY    52  52 100 SW3       29.97S
DUBOIS         MOCLDY    54  52  93 SW8       29.98S FOG
CLEARFIELD     PTCLDY    56  55  97 S3        29.98R
JOHNSTOWN      CLOUDY    56  53  90 W10       30.01S
ALTOONA        MOCLDY    59  57  93 W8        29.99S
STATE COLLEGE  MOCLDY    58  57  94 W7        29.97R
WILLIAMSPORT   CLOUDY    62  62 100 CALM      29.92S
SELINSGROVE    CLOUDY    62  62 100 CALM      29.94F
FT INDIANTOWN  CLOUDY    60  60 100 CALM      29.95R FOG
CAPITAL CITY   CLOUDY    64  60  87 NW3       29.94S
HARRISBURG     CLOUDY    64  63  96 CALM      29.93F
YORK           LGT RAIN  64  63  96 W3        29.94F
$$

PAZ038>040-043-044-047-048-054-055-060>062-067>071-270700-
EASTERN PENNSYLVANIA

CITY           SKY/WX    TMP DP  RH WIND       PRES   REMARKS
SCRANTON       CLOUDY    59  58  96 SW3       29.94F FOG
MOUNT POCONO   LGT RAIN  56  54  93 SW8       29.96S
ALLENTOWN      RAIN      61  57  88 CALM      29.95F FOG
QUAKERTOWN*    CLOUDY    61  59  94 CALM      29.96S
READING        LGT RAIN  61  58  90 CALM      29.94S
LANCASTER      LGT RAIN  63  63 100 CALM      29.94S
COATESVILLE    LGT RAIN  64  61  88 CALM      29.96S
POTTSTOWN      RAIN      63  61  93 VRB3      29.96S FOG
BLUE BELL      CLOUDY    64  61  88 S5        29.93F
DOYLESTOWN     LGT RAIN  64  62  93 CALM      29.94S
WILLOW GROVE   NOT AVBL
NORTH PHILA    CLOUDY    67  65  93 SW7       29.95F
PHILADELPHIA   CLOUDY    69  64  84 SW10      29.95F
$$




USA.gov is the U.S. government's official web portal to all federal, state and local government web resources and services.